Location: *
(43.4667°N, 11.6833°E)
Time: 08:10:47
(UTC+00:00)

USA 81 - Pass Details

Date: 19 July 2019
Orbit: 786 x 788 km, 85.0° (Epoch: 01 August)

Event Time Altitude Azimuth Distance (km) Brightness Sun altitude
Rises 20:58:06 0° 354° (N) 3,289 8.4 -18.0°
Reaches altitude 10° 21:00:28 10° 353° (N) 2,356 7.5 -18.3°
Maximum altitude 21:05:46 83° 268° (W) 798 4.0 -18.8°
Enters shadow 21:08:28 30° 182° (S) 1,384 4.9 -19.1°
